Weather History for Canadian, TX

Change the Weather History Date:

Sunday, May 12, 2013

  Actual Average (KPPA) Record (KPPA)
Temperature  
Mean Temperature 66 °F -  
Max Temperature 84 °F 77 °F 94 °F (1970)
Min Temperature 49 °F 50 °F 38 °F (1966)
Cooling Degree Days 1    
Growing Degree Days 16 (Base 50)    
Moisture  
Dew Point 43 °F    
Average Humidity 47    
Maximum Humidity 81    
Minimum Humidity 20    
Precipitation  
Precipitation 0.00 in - - ()
Sea Level Pressure  
Sea Level Pressure 30.17 in    
Wind  
Wind Speed 7 mph (SSW)    
Max Wind Speed 25 mph    
Max Gust Speed 34 mph    
Visibility 10 miles    
Events Rain    
Averages and records for this station are not official NWS values.
T = Trace of Precipitation, MM = Missing Value Source: NWS Daily Summary

Daily Weather History Graph

Daily Weather History Graph

Search for Another Location

Airport:

Trip Planner

Search our weather history database for the weather conditions in past years. The results will help you decide how hot, cold, wet, or windy it might be!

Date:

Astronomy

May. 12, 2013 Rise Set
Actual Time 6:38 AM CDT 8:38 PM CDT
Civil Twilight 6:10 AM CDT 9:06 PM CDT
Nautical Twilight 5:35 AM CDT 9:40 PM CDT
Astronomical Twilight 4:58 AM CDT 10:17 PM CDT
Moon 8:36 AM CDT (5/12) 11:05 PM CDT (5/12)
Length of Visible Light 14h 56m
Length of Day
13h 59m
Waxing Crescent, 7% of the Moon is Illuminated
May 12
Waxing Crescent
May 17
First Quarter
May 24
Full
May 31
Last Quarter
Jun 8
New

Hourly Weather History & Observations

Time (CDT) Temp. Dew Point Humidity Pressure Visibility Wind Dir Wind Speed Gust Speed Precip Events Conditions
12:15 AM 55.2 °F 43.7 °F 65% 30.28 in 10.0 mi South 3.5 mph - N/A   Clear
12:35 AM 54.7 °F 42.6 °F 64% 30.29 in 10.0 mi SE 5.8 mph - N/A   Clear
12:55 AM 54.3 °F 41.7 °F 62% 30.28 in 10.0 mi SSE 3.5 mph - N/A   Clear
1:15 AM 52.5 °F 42.6 °F 69% 30.29 in 10.0 mi SW 4.6 mph - N/A   Clear
1:35 AM 54.3 °F 42.3 °F 64% 30.29 in 10.0 mi Calm Calm - N/A   Clear
1:55 AM 53.8 °F 41.7 °F 64% 30.30 in 10.0 mi Calm Calm - N/A   Clear
2:15 AM 52.2 °F 41.9 °F 68% 30.29 in 10.0 mi South 3.5 mph - N/A   Clear
2:35 AM 51.1 °F 42.1 °F 71% 30.29 in 10.0 mi SSW 3.5 mph - N/A   Clear
2:55 AM 51.3 °F 41.9 °F 70% 30.28 in 10.0 mi Calm Calm - N/A   Clear
3:15 AM 51.4 °F 41.4 °F 68% 30.28 in 10.0 mi Calm Calm - N/A   Clear
3:35 AM 50.5 °F 41.7 °F 72% 30.27 in 10.0 mi Calm Calm - N/A   Clear
3:55 AM 51.1 °F 41.4 °F 69% 30.27 in 10.0 mi Calm Calm - N/A   Clear
4:15 AM 49.3 °F 41.9 °F 76% 30.26 in 10.0 mi Calm Calm - N/A   Clear
4:35 AM 50.0 °F 43.0 °F 77% 30.27 in 10.0 mi Calm Calm - N/A   Clear
4:55 AM 51.1 °F 44.1 °F 77% 30.26 in 10.0 mi SW 4.6 mph - N/A   Scattered Clouds
5:15 AM 53.1 °F 43.3 °F 70% 30.25 in 10.0 mi SW 5.8 mph - N/A   Mostly Cloudy
5:35 AM 52.9 °F 43.7 °F 71% 30.25 in 10.0 mi WSW 4.6 mph - N/A   Overcast
5:55 AM 52.9 °F 43.5 °F 71% 30.26 in 10.0 mi Calm Calm - N/A Rain Light Rain
6:15 AM 51.1 °F 45.5 °F 81% 30.26 in 10.0 mi North 4.6 mph - N/A   Mostly Cloudy
6:35 AM 50.4 °F 44.1 °F 79% 30.26 in 10.0 mi Calm Calm - N/A   Scattered Clouds
6:55 AM 50.5 °F 44.1 °F 78% 30.27 in 10.0 mi Calm Calm - N/A   Clear
7:15 AM 50.5 °F 44.6 °F 80% 30.27 in 10.0 mi Calm Calm - N/A   Clear
7:35 AM 52.3 °F 44.6 °F 75% 30.27 in 10.0 mi Calm Calm - N/A   Clear
7:55 AM 54.9 °F 43.3 °F 65% 30.27 in 10.0 mi South 3.5 mph - N/A   Clear
8:15 AM 56.1 °F 41.4 °F 58% 30.27 in 10.0 mi SSW 3.5 mph - N/A   Clear
8:35 AM 58.1 °F 40.8 °F 53% 30.27 in 10.0 mi SSW 5.8 mph - N/A   Clear
8:55 AM 60.3 °F 39.6 °F 46% 30.26 in 10.0 mi SSW 12.7 mph - N/A   Clear
9:15 AM 61.7 °F 37.9 °F 41% 30.26 in 10.0 mi SSW 15.0 mph 19.6 mph N/A   Clear
9:35 AM 63.0 °F 36.0 °F 37% 30.26 in 10.0 mi South 15.0 mph - N/A   Clear
9:55 AM 64.2 °F 35.8 °F 35% 30.25 in 10.0 mi SSW 17.3 mph - N/A   Clear
10:35 AM 66.4 °F 39.6 °F 37% 30.24 in 10.0 mi SSW 18.4 mph 24.2 mph N/A   Clear
10:55 AM 67.5 °F 42.8 °F 41% 30.23 in 10.0 mi SSW 15.0 mph 20.7 mph N/A   Clear
11:15 AM 68.9 °F 43.3 °F 40% 30.22 in 10.0 mi SSW 17.3 mph 25.3 mph N/A   Clear
11:35 AM 70.0 °F 44.2 °F 40% 30.21 in 10.0 mi SW 16.1 mph 21.9 mph N/A   Clear
11:55 AM 71.6 °F 45.0 °F 38% 30.21 in 10.0 mi SW 12.7 mph 24.2 mph N/A   Clear
12:15 PM 72.7 °F 45.9 °F 38% 30.20 in 10.0 mi SW 15.0 mph 25.3 mph N/A   Clear
12:35 PM 74.3 °F 45.9 °F 36% 30.19 in 10.0 mi SW 15.0 mph 24.2 mph N/A   Clear
12:55 PM 74.5 °F 45.7 °F 36% 30.19 in 10.0 mi SW 18.4 mph 26.5 mph N/A   Clear
1:35 PM 77.4 °F 46.6 °F 34% 30.16 in 10.0 mi SSW 15.0 mph 25.3 mph N/A   Clear
1:55 PM 77.7 °F 46.9 °F 34% 30.15 in 10.0 mi SSW 18.4 mph 25.3 mph N/A   Clear
2:15 PM 79.3 °F 46.8 °F 32% 30.13 in 10.0 mi SSW 19.6 mph 26.5 mph N/A   Clear
2:35 PM 80.2 °F 47.1 °F 31% 30.12 in 10.0 mi South 21.9 mph 27.6 mph N/A   Clear
2:55 PM 81.5 °F 47.1 °F 30% 30.12 in 10.0 mi SSW 18.4 mph 28.8 mph N/A   Clear
3:15 PM 81.0 °F 46.0 °F 29% 30.11 in 10.0 mi SSW 20.7 mph 26.5 mph N/A   Scattered Clouds
3:35 PM 82.4 °F 46.6 °F 28% 30.09 in 10.0 mi SSW 21.9 mph 31.1 mph N/A   Clear
3:55 PM 82.8 °F 46.0 °F 28% 30.08 in 10.0 mi SSW 20.7 mph 31.1 mph N/A   Clear
4:15 PM 82.8 °F 45.5 °F 27% 30.07 in 10.0 mi SW 18.4 mph 27.6 mph N/A   Clear
4:35 PM 83.8 °F 45.3 °F 26% 30.05 in 10.0 mi SSW 25.3 mph 34.5 mph N/A   Clear
4:55 PM 82.8 °F 43.7 °F 25% 30.05 in 10.0 mi SW 18.4 mph 31.1 mph N/A   Clear
5:15 PM 82.9 °F 40.1 °F 22% 30.04 in 10.0 mi SW 21.9 mph 26.5 mph N/A   Scattered Clouds
5:35 PM 83.8 °F 39.2 °F 20% 30.04 in 10.0 mi SW 17.3 mph 24.2 mph N/A   Mostly Cloudy
5:55 PM 82.9 °F 39.0 °F 21% 30.03 in 10.0 mi SW 17.3 mph 26.5 mph N/A   Scattered Clouds
6:15 PM 81.7 °F 39.7 °F 22% 30.03 in 10.0 mi SSW 13.8 mph 23.0 mph N/A   Scattered Clouds
6:35 PM 81.1 °F 38.8 °F 22% 30.04 in 10.0 mi WSW 11.5 mph - N/A   Overcast
6:55 PM 80.2 °F 43.0 °F 27% 30.03 in 10.0 mi Calm Calm - N/A Rain Light Rain
7:15 PM 81.1 °F 45.1 °F 28% 30.02 in 10.0 mi South 4.6 mph - N/A   Scattered Clouds
7:35 PM 81.1 °F 41.5 °F 24% 30.01 in 10.0 mi WSW 11.5 mph - N/A   Clear
7:55 PM 79.5 °F 41.2 °F 25% 30.01 in 10.0 mi SW 11.5 mph - N/A   Clear
8:15 PM 77.5 °F 41.5 °F 28% 30.02 in 10.0 mi SSW 12.7 mph - N/A   Clear
8:35 PM 75.7 °F 41.9 °F 30% 30.02 in 10.0 mi SSW 9.2 mph - N/A   Clear
8:55 PM 73.6 °F 43.0 °F 33% 30.02 in 10.0 mi SSW 10.4 mph - N/A   Clear
9:15 PM 71.6 °F 43.7 °F 37% 30.03 in 10.0 mi SSW 11.5 mph - N/A   Clear
9:35 PM 71.6 °F 43.0 °F 36% 30.03 in 10.0 mi SSW 9.2 mph - N/A   Clear
9:55 PM 69.4 °F 43.7 °F 39% 30.04 in 10.0 mi SSW 9.2 mph - N/A   Clear
10:15 PM 68.9 °F 44.2 °F 41% 30.05 in 10.0 mi SW 6.9 mph - N/A   Clear
10:35 PM 72.1 °F 41.7 °F 33% 30.05 in 10.0 mi SSW 10.4 mph - N/A   Clear
10:55 PM 71.2 °F 41.9 °F 35% 30.06 in 10.0 mi South 13.8 mph - N/A   Clear
11:15 PM 66.2 °F 43.7 °F 44% 30.07 in 10.0 mi SW 8.1 mph - N/A   Clear
11:35 PM 65.3 °F 43.9 °F 46% 30.07 in 10.0 mi WSW 6.9 mph - N/A   Clear
11:55 PM 64.9 °F 43.2 °F 45% 30.07 in 10.0 mi WSW 6.9 mph - N/A   Clear